Tracking 29932 objects as of 4-Dec-2024
HD Live streaming from Space Station
objects crossing your sky now

STARLINK-30130

Track STARLINK-30130 now!
10-day predictions
STARLINK-30130 is classified as:


NORAD ID: 56697
Int'l Code: 2023-067K
Perigee: 565.6 km
Apogee: 566.9 km
Inclination: 43.0 °
Period: 95.8 minutes
Semi major axis: 6937 km
RCS: Unknown
Launch date: May 19, 2023
Source: United States (US)
Launch site: AIR FORCE EASTERN TEST RANGE (AFETR)
Your satellite tracking list
Your tracking list is empty




NASA's NSSDC Master Catalog

Two Line Element Set (TLE):
1 56697U 23067K   24338.47645630  .00000114  00000-0  23501-4 0  9997
2 56697  43.0028 260.3895 0000885 284.0339  76.0405 15.02525039 86025
Source of the keplerian elements: AFSPC